This is the latest recevied weather packets stored in our database for station/object KB1RMA-4. If no packets are shown the sender has not sent any weather packets the latest 10 day(s).
| Time | Temp. | Humidity | Pressure | Rain* | Wind** | Luminosity | Snow |
|---|---|---|---|---|---|---|---|
| 1788439820 | 17.78° C | 97% | 1015.1 hPa | 0 mm | - | 47 W/m² | - |
| 1788439515 | 17.78° C | 97% | 1015.3 hPa | 1.78 mm | - | 37 W/m² | - |
| 1788439214 | 17.22° C | 97% | 1015.4 hPa | 1.78 mm | - | 39 W/m² | - |
| 1788438909 | 17.22° C | 97% | 1015.6 hPa | 0 mm | - | 33 W/m² | - |
| 1788438608 | 17.22° C | 97% | 1015.5 hPa | 0 mm | - | 32 W/m² | - |
| 1788438308 | 17.22° C | 97% | 1015.4 hPa | 0 mm | - | 36 W/m² | - |
| 1788438007 | 17.22° C | 97% | 1015.5 hPa | 0 mm | - | 30 W/m² | - |
| 1788437702 | 17.22° C | 97% | 1015.6 hPa | 2.29 mm | - | 32 W/m² | - |
| 1788437399 | 17.22° C | 97% | 1015.7 hPa | 2.29 mm | - | 30 W/m² | - |
| 1788437097 | 17.22° C | 97% | 1015.7 hPa | 0 mm | - | 31 W/m² | - |
| 1788436796 | 17.22° C | 97% | 1015.7 hPa | 2.29 mm | - | 30 W/m² | - |
| 1788436491 | 17.22° C | 97% | 1015.9 hPa | 0 mm | - | 27 W/m² | - |
| 1788436184 | 17.22° C | 97% | 1015.9 hPa | 0 mm | - | 23 W/m² | - |
| 1788435880 | 17.22° C | 96% | 1016 hPa | 2.29 mm | - | 24 W/m² | - |
| 1788435575 | 17.22° C | 96% | 1016 hPa | 2.29 mm | - | 29 W/m² | - |
| 1788435271 | 17.22° C | 96% | 1016.1 hPa | 2.29 mm | - | 18 W/m² | - |
| 1788434966 | 17.22° C | 96% | 1016 hPa | 4.83 mm | - | 13 W/m² | - |
| 1788434662 | 17.22° C | 96% | 1016.2 hPa | 4.32 mm | - | 13 W/m² | - |
| 1788434361 | 17.22° C | 96% | 1015.8 hPa | 2.29 mm | - | 13 W/m² | - |
| 1788434060 | 17.22° C | 96% | 1015.7 hPa | 2.29 mm | - | 17 W/m² | - |
| 1788433757 | 17.22° C | 95% | 1015.8 hPa | 2.29 mm | - | 14 W/m² | - |
| 1788433452 | 17.22° C | 95% | 1016.1 hPa | 4.83 mm | - | 5 W/m² | - |
| 1788433147 | 17.22° C | 95% | 1016.1 hPa | 2.29 mm | - | 3 W/m² | - |
| 1788432842 | 17.22° C | 94% | 1015.8 hPa | 0 mm | - | 10 W/m² | - |
| 1788432542 | 17.22° C | 94% | 1015.7 hPa | 4.32 mm | - | 4 W/m² | - |
* Rain latest hour (hover to see other rain measurements)
** Current wind speed in m/s (hover to see current wind gust speed)